TimeCDT,TemperatureF,Dew PointF,Humidity,Sea Level PressureIn,VisibilityMPH,Wind Direction,Wind SpeedMPH,Gust SpeedMPH,PrecipitationIn,Events,Conditions,WindDirDegrees,DateUTC
12:14 AM,62.6,53.6,72,30.00,10.0,NE,6.9,-,N/A,,Clear,50,2013-06-30 05:14:00
12:34 AM,62.6,53.6,72,30.00,10.0,ENE,8.1,-,N/A,,Clear,60,2013-06-30 05:34:00
12:53 AM,60.8,53.6,77,30.01,10.0,ENE,5.8,-,N/A,,Clear,60,2013-06-30 05:53:00
1:14 AM,60.8,53.6,77,30.01,10.0,NNE,5.8,-,N/A,,Clear,20,2013-06-30 06:14:00
1:34 AM,59.0,53.6,82,30.02,10.0,Calm,Calm,-,N/A,,Clear,0,2013-06-30 06:34:00
1:53 AM,59.0,53.6,82,30.03,10.0,NW,5.8,-,N/A,,Clear,320,2013-06-30 06:53:00
2:14 AM,59.0,53.6,82,30.03,10.0,NW,5.8,-,N/A,,Mostly Cloudy,320,2013-06-30 07:14:00
2:31 AM,59.0,51.8,77,30.04,10.0,NNW,3.5,-,N/A,,Scattered Clouds,340,2013-06-30 07:31:00
2:54 AM,59.0,51.8,77,30.04,10.0,Calm,Calm,-,N/A,,Clear,0,2013-06-30 07:54:00
3:13 AM,57.2,51.8,82,30.05,10.0,NNW,3.5,-,N/A,,Scattered Clouds,340,2013-06-30 08:13:00
3:34 AM,57.2,51.8,82,30.06,10.0,NNW,5.8,-,N/A,,Scattered Clouds,340,2013-06-30 08:34:00
3:54 AM,57.2,51.8,82,30.06,10.0,Calm,Calm,-,N/A,,Scattered Clouds,0,2013-06-30 08:54:00
4:13 AM,55.4,51.8,88,30.06,10.0,North,3.5,-,N/A,,Scattered Clouds,350,2013-06-30 09:13:00
4:34 AM,55.4,51.8,88,30.06,10.0,North,3.5,-,N/A,,Scattered Clouds,350,2013-06-30 09:34:00
4:54 AM,55.4,51.8,88,30.07,10.0,North,3.5,-,N/A,,Mostly Cloudy,350,2013-06-30 09:54:00
5:13 AM,55.4,50.0,82,30.07,10.0,North,3.5,-,N/A,,Mostly Cloudy,0,2013-06-30 10:13:00
5:34 AM,53.6,50.0,88,30.07,10.0,North,3.5,-,N/A,,Scattered Clouds,0,2013-06-30 10:34:00
5:54 AM,55.4,50.0,82,30.07,10.0,North,5.8,-,N/A,,Scattered Clouds,10,2013-06-30 10:54:00
6:13 AM,55.4,50.0,82,30.08,10.0,North,3.5,-,N/A,,Scattered Clouds,0,2013-06-30 11:13:00
6:34 AM,55.4,50.0,82,30.08,10.0,Calm,Calm,-,N/A,,Scattered Clouds,0,2013-06-30 11:34:00
6:53 AM,55.4,51.8,88,30.09,10.0,Calm,Calm,-,N/A,,Scattered Clouds,0,2013-06-30 11:53:00
7:14 AM,59.0,51.8,77,30.09,10.0,North,4.6,-,N/A,,Clear,0,2013-06-30 12:14:00
7:33 AM,59.0,51.8,77,30.10,10.0,North,6.9,-,N/A,,Clear,10,2013-06-30 12:33:00
7:54 AM,59.0,51.8,77,30.10,10.0,North,5.8,-,N/A,,Clear,0,2013-06-30 12:54:00
8:14 AM,60.8,51.8,72,30.11,10.0,North,5.8,-,N/A,,Clear,10,2013-06-30 13:14:00
8:33 AM,62.6,51.8,68,30.12,10.0,NNE,10.4,-,N/A,,Clear,20,2013-06-30 13:33:00
8:54 AM,62.6,50.0,63,30.12,10.0,North,12.7,-,N/A,,Clear,10,2013-06-30 13:54:00
9:14 AM,60.8,50.0,68,30.13,10.0,NNE,9.2,-,N/A,,Clear,20,2013-06-30 14:14:00
9:33 AM,64.4,48.2,56,30.13,10.0,NNE,12.7,-,N/A,,Clear,20,2013-06-30 14:33:00
9:54 AM,68.0,46.4,46,30.13,10.0,NNE,10.4,-,N/A,,Clear,20,2013-06-30 14:54:00
10:14 AM,68.0,42.8,40,30.13,10.0,NE,10.4,-,N/A,,Clear,40,2013-06-30 15:14:00
10:33 AM,69.8,42.8,38,30.13,10.0,NE,11.5,-,N/A,,Clear,40,2013-06-30 15:33:00
10:54 AM,69.8,42.8,38,30.13,10.0,NNE,11.5,-,N/A,,Clear,30,2013-06-30 15:54:00
11:12 AM,71.6,42.8,35,30.13,10.0,NNE,9.2,-,N/A,,Clear,30,2013-06-30 16:12:00
11:34 AM,71.6,44.6,38,30.13,10.0,NE,15.0,20.7,N/A,,Clear,50,2013-06-30 16:34:00
11:54 AM,71.6,44.6,38,30.13,10.0,NE,13.8,-,N/A,,Clear,40,2013-06-30 16:54:00
12:14 PM,71.6,42.8,35,30.13,10.0,NNE,15.0,-,N/A,,Clear,20,2013-06-30 17:14:00
12:34 PM,73.4,41.0,31,30.13,10.0,NNE,13.8,20.7,N/A,,Clear,30,2013-06-30 17:34:00
12:54 PM,73.4,42.8,33,30.14,10.0,NNE,12.7,20.7,N/A,,Clear,30,2013-06-30 17:54:00
1:14 PM,73.4,42.8,33,30.13,10.0,NE,12.7,20.7,N/A,,Clear,40,2013-06-30 18:14:00
1:34 PM,73.4,42.8,33,30.13,10.0,North,8.1,20.7,N/A,,Clear,0,2013-06-30 18:34:00
1:54 PM,75.2,42.8,31,30.13,10.0,NNE,13.8,17.3,N/A,,Clear,20,2013-06-30 18:54:00
2:13 PM,75.2,44.6,34,30.13,10.0,NNE,10.4,17.3,N/A,,Scattered Clouds,20,2013-06-30 19:13:00
2:34 PM,77.0,42.8,29,30.12,10.0,NNE,12.7,23.0,N/A,,Scattered Clouds,20,2013-06-30 19:34:00
2:54 PM,77.0,42.8,29,30.12,10.0,North,12.7,23.0,N/A,,Scattered Clouds,10,2013-06-30 19:54:00
3:13 PM,77.0,41.0,28,30.12,10.0,North,11.5,19.6,N/A,,Clear,10,2013-06-30 20:13:00
3:34 PM,77.0,41.0,28,30.12,7.0,NE,17.3,24.2,N/A,,Clear,40,2013-06-30 20:34:00
3:54 PM,78.8,37.4,23,30.12,10.0,ENE,15.0,-,N/A,,Clear,60,2013-06-30 20:54:00
4:13 PM,77.0,37.4,24,30.12,10.0,NNE,13.8,19.6,N/A,,Clear,30,2013-06-30 21:13:00
4:34 PM,78.8,41.0,26,30.12,10.0,NNE,16.1,20.7,N/A,,Clear,30,2013-06-30 21:34:00
4:51 PM,77.0,39.2,26,30.12,10.0,NE,16.1,21.9,N/A,,Clear,40,2013-06-30 21:51:00
5:14 PM,78.8,35.6,21,30.12,10.0,NNE,12.7,19.6,N/A,,Clear,20,2013-06-30 22:14:00
5:34 PM,78.8,35.6,21,30.12,10.0,NNE,12.7,-,N/A,,Clear,20,2013-06-30 22:34:00
5:53 PM,77.0,39.2,26,30.12,10.0,NNE,13.8,-,N/A,,Clear,30,2013-06-30 22:53:00
6:14 PM,78.8,39.2,24,30.12,10.0,NE,13.8,18.4,N/A,,Clear,40,2013-06-30 23:14:00
6:34 PM,78.8,41.0,26,30.12,10.0,NE,17.3,-,N/A,,Clear,50,2013-06-30 23:34:00
6:54 PM,77.0,41.0,28,30.12,10.0,NNE,12.7,16.1,N/A,,Clear,30,2013-06-30 23:54:00
7:14 PM,77.0,42.8,29,30.12,10.0,NE,15.0,19.6,N/A,,Clear,40,2013-07-01 00:14:00
7:34 PM,77.0,42.8,29,30.12,10.0,NE,12.7,-,N/A,,Clear,40,2013-07-01 00:34:00
7:54 PM,77.0,44.6,32,30.12,10.0,NE,11.5,-,N/A,,Clear,40,2013-07-01 00:54:00
8:14 PM,75.2,44.6,34,30.12,10.0,NE,9.2,-,N/A,,Clear,40,2013-07-01 01:14:00
8:33 PM,73.4,48.2,41,30.12,10.0,NE,6.9,-,N/A,,Clear,40,2013-07-01 01:33:00
8:54 PM,71.6,50.0,46,30.12,10.0,NE,4.6,-,N/A,,Clear,40,2013-07-01 01:54:00
9:14 PM,69.8,51.8,53,30.13,10.0,NNE,4.6,-,N/A,,Clear,20,2013-07-01 02:14:00
9:33 PM,68.0,51.8,56,30.13,10.0,North,3.5,-,N/A,,Clear,10,2013-07-01 02:33:00
9:54 PM,66.2,51.8,60,30.15,10.0,Calm,Calm,-,N/A,,Clear,0,2013-07-01 02:54:00
10:14 PM,64.4,51.8,64,30.15,7.0,Calm,Calm,-,N/A,,Clear,0,2013-07-01 03:14:00
10:34 PM,62.6,51.8,68,30.15,10.0,Calm,Calm,-,N/A,,Clear,0,2013-07-01 03:34:00
10:54 PM,62.6,51.8,68,30.15,10.0,NW,3.5,-,N/A,,Clear,320,2013-07-01 03:54:00
11:14 PM,62.6,51.8,68,30.16,10.0,NW,3.5,-,N/A,,Clear,310,2013-07-01 04:14:00
11:34 PM,62.6,51.8,68,30.16,10.0,NW,3.5,-,N/A,,Clear,320,2013-07-01 04:34:00
11:54 PM,62.6,51.8,68,30.16,10.0,NW,3.5,-,N/A,,Clear,320,2013-07-01 04:54:00